Weather History for Jackson, TN

Change the Weather History Date:

Wednesday, April 16, 2014

  Actual Average Record
Temperature  
Mean Temperature 46 °F 60 °F  
Max Temperature 62 °F 72 °F 89 °F (1977)
Min Temperature 29 °F 48 °F 29 °F (1983)
Degree Days  
Heating Degree Days 19 6  
Month to date heating degree days 143 132  
Since 1 July heating degree days 4033 3460  
Cooling Degree Days 0 2  
Month to date cooling degree days 31 18  
Year to date cooling degree days 31 29  
Moisture  
Dew Point 26 °F    
Average Humidity 56    
Maximum Humidity 92    
Minimum Humidity 20    
Precipitation  
Precipitation 0.00 in 0.16 in 2.07 in (1982)
Month to date precipitation 2.45 2.48  
Year to date precipitation 16.45 15.47  
Snow  
Snow 0.00 in 0.00 in - ()
Month to date snowfall T 0.1  
Since 1 July snowfall 1.3 4.7  
Snow Depth 0.00 in    
Sea Level Pressure  
Sea Level Pressure 30.23 in    
Wind  
Wind Speed 4 mph (ESE)    
Max Wind Speed 14 mph    
Max Gust Speed 18 mph    
Visibility 10 miles    
Events      
T = Trace of Precipitation, MM = Missing Value Source: NWS Daily Summary

Daily Weather History Graph

Daily Weather History Graph

Search for Another Location

Airport:

Trip Planner

Search our weather history database for the weather conditions in past years. The results will help you decide how hot, cold, wet, or windy it might be!

Date:

Astronomy

Apr. 16, 2014 Rise Set
Actual Time 6:21 AM CDT 7:29 PM CDT
Civil Twilight 5:55 AM CDT 7:56 PM CDT
Nautical Twilight 5:24 AM CDT 8:27 PM CDT
Astronomical Twilight 4:51 AM CDT 9:00 PM CDT
Moon 9:10 PM CDT (4/16) 7:11 AM CDT (4/16)
Length of Visible Light 14h 00m
Length of Day
13h 07m
Full, 98% of the Moon is Illuminated
Apr 16
Full
Apr 22
Last Quarter
Apr 29
New
May 6
First Quarter
May 14
Full

Hourly Weather History & Observations

Time (CDT) Temp. Windchill Dew Point Humidity Pressure Visibility Wind Dir Wind Speed Gust Speed Precip Events Conditions
12:53 AM 30.0 °F - 27.0 °F 88% 30.29 in 10.0 mi Calm Calm - N/A   Clear
1:53 AM 30.0 °F - 27.0 °F 88% 30.28 in 10.0 mi Calm Calm - N/A   Clear
2:53 AM 28.9 °F - 26.1 °F 89% 30.27 in 10.0 mi Calm Calm - N/A   Clear
3:53 AM 30.9 °F - 26.1 °F 82% 30.27 in 10.0 mi Calm Calm - N/A   Clear
4:53 AM 30.0 °F - 24.1 °F 79% 30.27 in 10.0 mi Calm Calm - N/A   Clear
5:53 AM 32.0 °F 28.7 °F 24.1 °F 73% 30.28 in 10.0 mi ESE 3.5 mph - N/A   Clear
6:53 AM 32.0 °F - 24.1 °F 73% 30.30 in 10.0 mi Calm Calm - N/A   Clear
7:53 AM 36.0 °F 31.1 °F 27.0 °F 70% 30.32 in 10.0 mi East 5.8 mph - N/A   Clear
8:53 AM 42.1 °F 37.7 °F 26.1 °F 53% 30.32 in 10.0 mi ESE 6.9 mph - N/A   Clear
9:53 AM 45.0 °F 40.6 °F 24.1 °F 44% 30.33 in 10.0 mi East 8.1 mph - N/A   Clear
10:53 AM 48.0 °F - 21.9 °F 36% 30.32 in 10.0 mi East 6.9 mph - N/A   Clear
11:53 AM 51.1 °F - 21.0 °F 31% 30.29 in 10.0 mi SSE 9.2 mph - N/A   Clear
1:53 PM 57.9 °F - 24.1 °F 27% 30.22 in 10.0 mi East 10.4 mph - N/A   Clear
2:53 PM 60.1 °F - 21.9 °F 23% 30.19 in 10.0 mi ENE 8.1 mph - N/A   Clear
3:53 PM 61.0 °F - 24.1 °F 24% 30.15 in 10.0 mi Variable 4.6 mph - N/A   Clear
4:53 PM 62.1 °F - 21.9 °F 21% 30.14 in 10.0 mi South 3.5 mph - N/A   Clear
5:53 PM 62.1 °F - 21.9 °F 21% 30.12 in 10.0 mi Variable 4.6 mph - N/A   Clear
6:53 PM 60.1 °F - 23.0 °F 24% 30.13 in 10.0 mi Calm Calm - N/A   Clear
7:53 PM 55.9 °F - 25.0 °F 30% 30.13 in 10.0 mi Calm Calm - N/A   Clear
8:53 PM 46.9 °F - 30.9 °F 54% 30.15 in 10.0 mi Calm Calm - N/A   Clear
9:53 PM 46.9 °F - 30.0 °F 52% 30.17 in 10.0 mi SSE 4.6 mph - N/A   Clear
10:53 PM 45.0 °F 43.5 °F 32.0 °F 60% 30.19 in 10.0 mi South 3.5 mph - N/A   Clear
11:53 PM 41.0 °F - 34.0 °F 76% 30.20 in 10.0 mi Calm Calm - N/A   Clear